Regional Weather Roundup
Issued by NWS

Home | Current Version | Previous Version | Graphics & Text | Print | Product List | Glossary Off
Versions: 1 2 3 4 5 6 7 8 9 10 11 12 13 14 15 16 17 18 19 20 21 22 23 24 25 26 27 28 29 30 31 32 33 34 35 36 37 38 39 40 41 42 43 44 45 46 47 48 49 50

000
ASUS43 KMKX 191259
RWRWI

WISCONSIN REGIONAL WEATHER ROUNDUP
NATIONAL WEATHER SERVICE MILWAUKEE/SULLIVAN WI
700 AM CST THU JAN 19 2017

NOTE: "FAIR" INDICATES FEW OR NO CLOUDS BELOW 12,000 FEET WITH NO
SIGNIFICANT WEATHER AND/OR OBSTRUCTIONS TO VISIBILITY.

WIZ001-002-006>008-014>016-023>028-191400-
NORTHWEST WISCONSIN

CITY           SKY/WX    TMP DP  RH WIND       PRES   REMARKS
SUPERIOR ARPT  CLOUDY    34  32  94 S3        29.81R FOG
ASHLAND        CLOUDY    33  31  92 S6        29.84R FOG     WCI  28
HAYWARD        CLOUDY    33  31  92 S8        29.84S FOG     WCI  26
SIREN          CLOUDY    30  29  98 SE6       29.83S FOG     WCI  24
CUMBERLAND     FOG       28  28 100 SE5       29.84S VSB 1/4 WCI  23
RICE LAKE      FOG       30  30 100 SE5       29.87S VSB<1/4 WCI  25
CHETEK         FOG       30  30 100 SE7       29.87R VSB 1/2 WCI  23
LADYSMITH      FOG       33  33  99 S6        29.88S VSB 1/2 WCI  27
EAU CLAIRE     NOT AVBL
MENOMONIE      FOG       25  24  97 N3G76     29.87S VSB 1/4
NEW RICHMOND   CLEAR     30  30  98 SE5       29.84R WCI  25
OSCEOLA        CLEAR     32  32 100 S7        29.86S WCI  25
$$

WIZ003>005-009-010-017-018-191400-
NORTH CENTRAL WISCONSIN

CITY           SKY/WX    TMP DP  RH WIND       PRES   REMARKS
MANITOWISH WTR FOG       31  31 100 S7        29.84F VSB 1/2 WCI  24
ARBOR VITAE    FOG       32  31  96 S6        29.86S VSB 1/2 WCI  26
WOODRUFF       FOG       32  31  96 S6        29.86S VSB 1/2 WCI  26
RHINELANDER    FOG       32  32 100 SW6       29.87F VSB 1/2 WCI  26
EAGLE RIVER    FOG       31  31 100 SW5       29.86S VSB 1/2 WCI  26
LAND O LAKES   FOG       32  32 100 SW5       29.87S VSB 1/2 WCI  27
PHILLIPS       FOG       32  32 100 S5        29.86S VSB 1   WCI  27
TOMAHAWK       FOG       31  30  96 CALM      29.89S VSB 1
MEDFORD        FOG       31  31 100 S5        29.88R VSB 1/4 WCI  26
MERRILL        FOG       31  31 100 CALM        N/A  VSB 1/2
$$

WIZ029-030-035-036-043>047-191400-
CENTRAL WISCONSIN

CITY           SKY/WX    TMP DP  RH WIND       PRES   REMARKS
WAUSAU         FOG       31  31 100 S6        29.89R VSB 1/4 WCI  25
MOSINEE        NOT AVBL
MARSHFIELD     FOG       32  31  96 S6        29.89S VSB 1/4 WCI  26
STEVENS POINT  FOG       31  31 100 S6        29.93S VSB 1/2 WCI  25
WAUPACA        CLOUDY    35  33  93 CALM      29.96R FOG
WAUTOMA        CLOUDY   N/A N/A N/A SW3       29.94F FOG
WISC RAPIDS    FOG       33  33 100 S7        29.94R VSB 1   WCI  27
CAMP DOUGLAS   NOT AVBL
$$

WIZ011>013-019>022-031-037>040-048>050-191400-
NORTHEAST WISCONSIN

CITY           SKY/WX    TMP DP  RH WIND       PRES   REMARKS
ANTIGO         FOG       29  29 100 CALM      29.88F VSB 1/2
SHAWANO        CLOUDY    34  32  94 SW5       29.94S FOG     WCI  30
OCONTO         NOT AVBL
STURGEON BAY   CLOUDY    32  31  96 SW10      29.95F FOG     WCI  24
GREEN BAY      CLOUDY    34  34 100 SW6       29.95S FOG     WCI  29
MANITOWOC      NOT AVBL
APPLETON       FOG       34  34 100 SW9       29.94S VSB 1/2 WCI  26
CLINTONVILLE   CLOUDY    32  32 100 SW6       29.94F FOG     WCI  26
OSHKOSH        CLOUDY    33  32  96 CALM      29.94F FOG
$$

WIZ032>034-041-042-053>061-191400-
SOUTHWEST WISCONSIN

CITY           SKY/WX    TMP DP  RH WIND       PRES   REMARKS
LA CROSSE      MOCLDY    35  32  88 S8        29.91F FOG     WCI  29
SPARTA         FOG       26  26 100 CALM      29.92F VSB 1/2
VIROQUA        CLOUDY    32  32 100 S8        29.90S VSB 1/2 WCI  24
BOSCOBEL       CLOUDY    34  33  96 CALM      29.94F FOG
PRAIRIE DU CHI CLOUDY    33  32  96 CALM      29.93F FOG
PLATTEVILLE    CLOUDY    32  32 100 SE6       29.94F VSB 1/4 WCI  26
$$

WIZ056-057-062-063-064-067-068-191400-
SOUTH CENTRAL WISCONSIN

CITY           SKY/WX    TMP DP  RH WIND       PRES   REMARKS
REEDSBURG      NOT AVBL
BARABOO/DELLS  FOG       28  28  98 CALM      29.92F VSB 1
LONE ROCK      NOT AVBL
MINERAL POINT  FOG       34  34 100 CALM      29.93F VSB<1/4
MADISON        FOG       32  32 100 S6        29.96R VSB 1/2 WCI  26
MIDDLETON      CLOUDY    34  34 100 S7        29.95S VSB 1/2 WCI  28
WATERTOWN      FOG       32  32 100 SW3       29.96S VSB 3/4
MONROE         FOG       32  32 100 CALM      29.94F VSB 1/2
JANESVILLE     MOCLDY    30  30 100 CALM      29.96F FOG
$$

WIZ051-052-058>065-066-070>072-191400-
SOUTHEAST WISCONSIN

CITY           SKY/WX    TMP DP  RH WIND       PRES   REMARKS
MILWAUKEE      FOG       34  33  96 SW5       29.97F VSB 1   WCI  30
WAUKESHA       CLOUDY    30  30 100 SW9       29.99  FOG     WCI  22
MILWAUKEE/TIMM CLOUDY    34  30  86 W6        29.98F FOG     WCI  29
RACINE         CLOUDY    33  31  92 S6        30.00S FOG     WCI  28
KENOSHA        FOG       33  32  96 S6        29.99R VSB 1/4 WCI  28
FOND DU LAC    CLOUDY    33  31  92 SW6       29.95F FOG     WCI  28
SHEBOYGAN      CLOUDY    31  30  96 CALM      29.96F FOG
WEST BEND      CLOUDY    32  32 100 SW6       29.96S FOG     WCI  26
JUNEAU         FOG       32  32  99 S9        29.97R VSB 1/4 WCI  24
$$

LSZ147-162-191400-
LAKE SUPERIOR

STATION/POSITION TIME  TEMP    WIND        PRES    WAVE
                       AIR SEA DIR/SP/G            HT/PER
                 (UTC) (F)     (DEG/KT/KT) (MB)    (FT/S)
DEVILS ISLAND    1200   33     170/  7/  8 1010.5S
PORT WING        1140   24     120/  2/  3 1009.8R
SAXON HARBOR     1130   28     200/  3/  4 1010.2R
$$

LMZ867-665-643>646-191400-
LAKE MICHIGAN

STATION/POSITION TIME  TEMP    WIND        PRES    WAVE
                       AIR SEA DIR/SP/G            HT/PER
                 (UTC) (F)     (DEG/KT/KT) (MB)    (FT/S)
NORTHPORT PIER   1200   31     230/  8/ 17 1013.5
SISTER BAY       1220   31     240/ 13/ 16   N/A
KEWAUNEE LAKESHO 1230   33     260/  4/  7 1014.3S
SHEBOYGAN LAKESH 1200   34     240/  6/  7 1015.4R
PORT WASHINGTON  1140   33     260/  1/  3 1015.9S
MILWAUKEE LAKESH 1230   35     210/  5/  8   N/A
KENOSHA   LAKESH 1200   34        CALM     1015.6
$$

TC  - TEMPERATURE IN CELSIUS
VSB - VISIBILITY IN STATUTE MILES
WCI - WIND CHILL INDEX
HX  - HEAT INDEX




USA.gov is the U.S. government's official web portal to all federal, state and local government web resources and services.